Regional Weather Roundup
Issued by NWS

Home | Current Version | Previous Version | Text Only | Print | Product List | Glossary On
Versions: 1 2 3 4 5 6 7 8 9 10 11 12 13 14 15 16 17 18 19 20 21 22 23 24 25 26 27 28 29 30 31 32 33 34 35 36 37 38 39 40 41 42 43 44 45 46 47 48 49 50
000
ASUS43 KLMK 281210
RWRKY
KENTUCKY REGIONAL WEATHER ROUNDUP
NATIONAL WEATHER SERVICE LOUISVILLE KY
700 AM EST SAT FEB 28 2015

NOTE "FAIR" INDICATES FEW OR NO CLOUDS BELOW 12,000 FEET
WITH NO SIGNIFICANT WEATHER AND/OR OBSTRUCTIONS TO VISIBILITY.

KYZ001>023-026-027-061>063-070>075-281300-
WESTERN AND SOUTH CENTRAL KENTUCKY

CITY           SKY/WX    TMP DP  RH WIND       PRES   REMARKS
PADUCAH        CLOUDY    21  10  62 NE7       30.63R WCI  12
HENDERSON      CLOUDY    21  10  63 NE8       30.66R WCI  12
OWENSBORO      MOCLDY    21   9  60 E8        30.66S WCI  11
HOPKINSVILLE   CLOUDY    23  10  56 NE7       30.60R WCI  15
BOWLING GREEN  CLOUDY    23   9  55 E10       30.62R WCI  12
GLASGOW        CLOUDY    21  11  64 E7        30.61R WCI  13
$$

KYZ024-025-028>034-038-045-046-053-281300-
NORTH CENTRAL KENTUCKY

CITY           SKY/WX    TMP DP  RH WIND       PRES   REMARKS
LOUISVILLE/SDF CLOUDY    19   5  54 NE9       30.68R WCI   8
LOUISVILLE/LOU CLOUDY    18   3  52 NE6       30.68R WCI  10
FORT KNOX      CLOUDY    18   5  58 NE8       30.63R WCI   8
$$

KYZ035>037-039>044-047>052-055>060-089>105-281300-
NORTHEAST KENTUCKY

CITY           SKY/WX    TMP DP  RH WIND       PRES   REMARKS
LEXINGTON      CLOUDY    16   5  62 E12       30.64S WCI   3
COVINGTON      CLOUDY    13   0  56 E8        30.68R WCI   2
FRANKFORT        N/A     16   4  59 E9        30.65S WCI   4
$$

KYZ054-064>069-076>088-106>120-281300-
SOUTHEAST KENTUCKY

CITY           SKY/WX    TMP DP  RH WIND       PRES   REMARKS
JACKSON        PTCLDY    17   7  64 NE5       30.60S WCI  10
LONDON         CLOUDY    21   8  57 NE6       30.59R WCI  13
SOMERSET       CLOUDY    21   9  58 E6        30.62R WCI  14
MIDDLESBORO    CLOUDY    20  14  77 CALM      30.59R
MONTICELLO     MOSUNNY   21  11  65 E6        30.62R WCI  13
$$




USA.gov is the U.S. government's official web portal to all federal, state and local government web resources and services.